Flag for New Zealand Weather past 2 weeks in Auckland, New Zealand

Now
59 °F

Passing clouds.


Feels Like: 56 °F
Forecast: 50 / 60 °F
Wind: 14 mph from Northeast

Location: Auckland Airport

Current Time: Jul 3, 2015 at 11:17:12 AM

Latest Report: Jul 3, 2015 at 11:00 AM


Visibility: N/A

Pressure: 29.92 "Hg

Humidity: 82%

Dew point: 54 °F

Location of AucklandLocation

Historic Weather in Auckland — Graph

°F

Auckland temperature yesterday

Maximum temperature yesterday: 57 °F (at 11:00 AM)
Minimum temperature yesterday: 45 °F (at 4:30 AM)
Average temperature yesterday: 52 °F

Past Weeks' High & Low Weather Summary

 TemperatureHumidityPressure
High64 °F (Jun 19, 12:30 PM)100% (Jun 20, 1:30 PM)30.39 "Hg (Jun 20, 1:30 PM)
Low37 °F (Jun 23, 6:30 AM)50% (Jun 23, 1:30 PM)29.65 "Hg (Jun 20, 4:30 PM)
Average53 °F82%30.09 "Hg
* Reported Jun 18 10:00 AM — Jul 3 10:30 AM, Auckland, Weather by CustomWeather, © 2015

Note: Actual official high and low records may vary slightly from our data, if they occured in-between our weather recording intervals... More about our weather records

Advertising

Auckland weather history for previous 24 hours

 ConditionsComfort  
Time TempWeatherWind HumidityBarometerVisibility
10:30 AM
Fri, Jul 3
59 °FPassing clouds.13 mph82%29.92 "HgN/A
10:00 AM57 °FCool.12 mph88%29.92 "HgN/A
9:30 AM54 °FCool.3 mph88%29.92 "HgN/A
9:00 AM48 °FCool.3 mph94%29.95 "HgN/A
8:30 AM46 °FCool.No wind93%29.95 "HgN/A
8:00 AM46 °FCool.No wind93%29.95 "HgN/A
7:30 AM46 °FCool.2 mph93%29.95 "HgN/A
7:00 AM48 °FPassing clouds.3 mph87%29.95 "HgN/A
6:30 AM48 °FPassing clouds.3 mph87%29.95 "HgN/A
6:00 AM48 °FOvercast.5 mph87%29.95 "HgN/A
5:30 AM46 °FPassing clouds.5 mph87%29.95 "HgN/A
5:00 AM45 °FQuite cool.6 mph87%29.98 "HgN/A
4:30 AM45 °FQuite cool.7 mph93%29.98 "HgN/A
4:00 AM45 °FPassing clouds.6 mph93%29.98 "HgN/A
3:30 AM46 °FPassing clouds.2 mph93%30.01 "HgN/A
3:00 AM46 °FPassing clouds.2 mph93%30.04 "HgN/A
2:30 AM48 °FPassing clouds.3 mph94%30.04 "HgN/A
2:00 AM48 °FPassing clouds.3 mph94%30.04 "HgN/A
1:30 AM48 °FOvercast.3 mph94%30.04 "HgN/A
1:00 AM48 °FPassing clouds.3 mph94%30.04 "HgN/A
12:30 AM48 °FPassing clouds.3 mph100%30.07 "HgN/A
12:00 AM50 °FOvercast.3 mph94%30.07 "HgN/A
11:30 PM
Thu, Jul 2
50 °FOvercast.3 mph94%30.07 "HgN/A
11:00 PM50 °FPassing clouds.3 mph94%30.07 "HgN/A
10:30 PM50 °FOvercast.3 mph94%30.07 "HgN/A
10:00 PM52 °FPassing clouds.3 mph88%30.09 "HgN/A
9:30 PM50 °FPassing clouds.2 mph94%30.09 "HgN/A
9:00 PM50 °FPassing clouds.2 mph94%30.09 "HgN/A
8:30 PM52 °FPassing clouds.3 mph88%30.09 "HgN/A
8:00 PM54 °FPassing clouds.3 mph82%30.09 "HgN/A
7:30 PM52 °FPassing clouds.3 mph88%30.09 "HgN/A
7:00 PM54 °FPassing clouds.2 mph77%30.09 "HgN/A
6:30 PM52 °FPassing clouds.3 mph88%30.09 "HgN/A
6:00 PM54 °FSprinkles. Partly cloudy.5 mph77%30.09 "HgN/A
5:30 PM55 °FMostly cloudy.5 mph72%30.09 "HgN/A
5:00 PM55 °FPassing clouds.1 mph77%30.09 "HgN/A
4:30 PM55 °FPassing clouds.2 mph77%30.09 "HgN/A
4:00 PM57 °FPartly sunny.2 mph67%30.09 "HgN/A
3:30 PM57 °FCool.1 mph67%30.09 "HgN/A
3:00 PM57 °FCool.3 mph72%30.09 "HgN/A
2:30 PM57 °FScattered clouds.2 mph67%30.09 "HgN/A
2:00 PM57 °FPartly sunny.2 mph67%30.09 "HgN/A
1:30 PM57 °FPassing clouds.5 mph72%30.12 "HgN/A
1:00 PM57 °FPartly sunny.5 mph72%30.12 "HgN/A
12:30 PM57 °FPartly sunny.2 mph67%30.15 "HgN/A
12:00 PM55 °FPartly sunny.2 mph82%30.15 "HgN/A
11:30 AM55 °FPartly sunny.6 mph82%30.18 "HgN/A
11:00 AM57 °FCool.3 mph77%30.18 "HgN/A
Weather by CustomWeather, © 2015

See weather overviewHow to use our weather pages